• In Moldova, Republic
  • List of Countries
  • For 7 days
  • Water Temperature
  • Satellite Maps
  • Weather Map
  • Weather Widgets
  • user-avatar
    Login

    Hourly Weather Igls

    Today, 28 May, Sunday

    Time Temperature Precipitation Wind Pressure Humidity
    00:00 +12°C° 0 mm 1 mps 687 mmHg 94%
    01:00 +10°C° 0 mm 1 mps 687 mmHg 93%
    02:00 +10°C° 0 mm 1 mps 687 mmHg 92%
    03:00 +10°C° 0 mm 1 mps 687 mmHg 90%
    04:00 +10°C° 0 mm 1 mps 687 mmHg 89%
    05:00 +12°C° 0 mm 1 mps 688 mmHg 84%
    06:00 +15°C° 0 mm 1 mps 688 mmHg 79%
    07:00 +19°C° 0 mm 1 mps 689 mmHg 74%
    08:00 +21°C° 0 mm 1 mps 689 mmHg 63%
    09:00 +23°C° 0 mm 1 mps 690 mmHg 52%
    10:00 +24°C° 0 mm 0 mps 690 mmHg 41%
    11:00 +26°C° 0 mm 1 mps 690 mmHg 39%
    12:00 +27°C° 0 mm 1 mps 690 mmHg 37%
    13:00 +27°C° 0 mm 1 mps 690 mmHg 35%
    14:00 +27°C° 0 mm 1 mps 690 mmHg 38%
    15:00 +27°C° 0 mm 1 mps 689 mmHg 40%
    16:00 +26°C° 0 mm 1 mps 689 mmHg 42%
    17:00 +24°C° 0 mm 1 mps 689 mmHg 54%
    18:00 +22°C° 0 mm 1 mps 688 mmHg 66%
    19:00 +20°C° 0 mm 1 mps 688 mmHg 78%
    20:00 +18°C° 0 mm 1 mps 687 mmHg 83%
    21:00 +14°C° 0 mm 1 mps 687 mmHg 87%
    22:00 +12°C° 0 mm 1 mps 687 mmHg 91%
    23:00 +12°C° 0 mm 1 mps 687 mmHg 90%

    Tomorrow, 29 May, Monday

    Time Temperature Precipitation Wind Pressure Humidity
    00:00 +12°C° 0 mm 1 mps 687 mmHg 88%
    01:00 +13°C° 0 mm 1 mps 687 mmHg 86%
    02:00 +13°C° 0 mm 1 mps 686 mmHg 86%
    03:00 +12°C° 0 mm 1 mps 686 mmHg 87%
    04:00 +12°C° 0 mm 1 mps 686 mmHg 88%
    05:00 +14°C° 0 mm 1 mps 686 mmHg 83%
    06:00 +18°C° 0 mm 1 mps 687 mmHg 78%
    07:00 +20°C° 0 mm 1 mps 687 mmHg 72%
    08:00 +22°C° 0 mm 1 mps 687 mmHg 63%
    09:00 +23°C° 0 mm 0 mps 687 mmHg 53%
    10:00 +25°C° 0 mm 0 mps 688 mmHg 43%
    11:00 +27°C° 0 mm 1 mps 687 mmHg 42%
    12:00 +28°C° 0 mm 1 mps 687 mmHg 40%
    13:00 +29°C° 0 mm 1 mps 687 mmHg 39%
    14:00 +28°C° 0.1 mm 1 mps 687 mmHg 44%
    15:00 +27°C° 0.1 mm 1 mps 686 mmHg 48%
    16:00 +26°C° 0.1 mm 1 mps 686 mmHg 52%
    17:00 +25°C° 0.2 mm 1 mps 686 mmHg 62%
    18:00 +23°C° 0.2 mm 1 mps 685 mmHg 72%
    19:00 +22°C° 0.2 mm 1 mps 685 mmHg 83%
    20:00 +20°C° 0.4 mm 1 mps 685 mmHg 86%
    21:00 +18°C° 0.4 mm 1 mps 685 mmHg 90%
    22:00 +15°C° 0.4 mm 1 mps 684 mmHg 94%
    23:00 +15°C° 0.5 mm 1 mps 684 mmHg 94%

    Day after tomorrow, 30 May, Tuesday

    Time Temperature Precipitation Wind Pressure Humidity
    00:00 +14°C° 0.5 mm 1 mps 685 mmHg 94%
    01:00 +14°C° 0.5 mm 1 mps 685 mmHg 95%
    02:00 +14°C° 0.2 mm 1 mps 684 mmHg 95%
    03:00 +14°C° 0.2 mm 1 mps 684 mmHg 95%
    04:00 +13°C° 0.2 mm 1 mps 684 mmHg 95%
    05:00 +15°C° 0.1 mm 1 mps 685 mmHg 92%
    06:00 +18°C° 0.1 mm 1 mps 685 mmHg 89%
    07:00 +20°C° 0.1 mm 1 mps 686 mmHg 85%
    08:00 +21°C° 0.2 mm 1 mps 686 mmHg 80%
    09:00 +22°C° 0.2 mm 1 mps 686 mmHg 75%
    10:00 +24°C° 0.2 mm 1 mps 686 mmHg 70%
    11:00 +24°C° 0.9 mm 1 mps 686 mmHg 71%
    12:00 +24°C° 0.9 mm 1 mps 686 mmHg 73%
    13:00 +24°C° 0.9 mm 1 mps 686 mmHg 74%
    14:00 +24°C° 1.6 mm 1 mps 686 mmHg 76%
    15:00 +24°C° 1.6 mm 1 mps 686 mmHg 79%
    16:00 +23°C° 1.6 mm 1 mps 686 mmHg 81%
    17:00 +22°C° 1.9 mm 1 mps 685 mmHg 85%
    18:00 +19°C° 1.9 mm 0 mps 685 mmHg 89%
    19:00 +18°C° 1.9 mm 0 mps 685 mmHg 94%
    20:00 +19°C° 2.1 mm 1 mps 686 mmHg 95%
    21:00 +18°C° 2.1 mm 1 mps 686 mmHg 96%
    22:00 +16°C° 2.1 mm 1 mps 686 mmHg 98%
    23:00 +16°C° 0.8 mm 1 mps 686 mmHg 97%

    31 May, Wednesday

    Time Temperature Precipitation Wind Pressure Humidity
    00:00 +16°C° 0.8 mm 1 mps 686 mmHg 97%
    01:00 +16°C° 0.8 mm 1 mps 686 mmHg 97%
    02:00 +15°C° 0.1 mm 1 mps 686 mmHg 97%
    03:00 +15°C° 0.1 mm 1 mps 686 mmHg 97%
    04:00 +14°C° 0.1 mm 1 mps 686 mmHg 97%
    05:00 +15°C° 0 mm 1 mps 686 mmHg 95%
    06:00 +16°C° 0 mm 1 mps 686 mmHg 93%
    07:00 +18°C° 0 mm 1 mps 686 mmHg 91%
    08:00 +20°C° 0.1 mm 1 mps 687 mmHg 85%
    09:00 +21°C° 0.1 mm 1 mps 687 mmHg 78%
    10:00 +22°C° 0.1 mm 1 mps 687 mmHg 71%
    11:00 +22°C° 0.5 mm 1 mps 687 mmHg 73%
    12:00 +22°C° 0.5 mm 1 mps 687 mmHg 74%
    13:00 +23°C° 0.5 mm 2 mps 687 mmHg 76%
    14:00 +21°C° 1.1 mm 2 mps 686 mmHg 79%
    15:00 +20°C° 1.1 mm 2 mps 686 mmHg 83%
    16:00 +20°C° 1.1 mm 2 mps 686 mmHg 86%
    17:00 +20°C° 1.5 mm 1 mps 686 mmHg 89%
    18:00 +19°C° 1.5 mm 1 mps 686 mmHg 93%
    19:00 +18°C° 1.5 mm 1 mps 686 mmHg 96%
    20:00 +18°C° 0.6 mm 1 mps 686 mmHg 97%
    21:00 +16°C° 0.6 mm 1 mps 686 mmHg 97%
    22:00 +15°C° 0.6 mm 1 mps 686 mmHg 98%
    23:00 +15°C° 0.2 mm 1 mps 686 mmHg 98%

    1 June, Thursday

    Time Temperature Precipitation Wind Pressure Humidity
    00:00 +14°C° 0.2 mm 0 mps 686 mmHg 98%
    01:00 +13°C° 0.2 mm 0 mps 686 mmHg 98%
    02:00 +14°C° 0.2 mm 1 mps 686 mmHg 98%
    03:00 +14°C° 0.2 mm 1 mps 686 mmHg 98%
    04:00 +14°C° 0.2 mm 1 mps 686 mmHg 98%
    05:00 +14°C° 0.3 mm 1 mps 686 mmHg 97%
    06:00 +15°C° 0.3 mm 1 mps 686 mmHg 96%
    07:00 +15°C° 0.3 mm 1 mps 687 mmHg 95%
    08:00 +16°C° 0.3 mm 1 mps 687 mmHg 91%
    09:00 +18°C° 0.3 mm 1 mps 687 mmHg 87%
    10:00 +19°C° 0.3 mm 1 mps 687 mmHg 83%
    11:00 +19°C° 0.6 mm 1 mps 687 mmHg 81%
    12:00 +19°C° 0.6 mm 1 mps 687 mmHg 79%
    13:00 +19°C° 0.6 mm 2 mps 687 mmHg 76%
    14:00 +20°C° 0.9 mm 1 mps 687 mmHg 77%
    15:00 +19°C° 0.9 mm 1 mps 687 mmHg 78%
    16:00 +19°C° 0.9 mm 1 mps 687 mmHg 78%
    17:00 +19°C° 0.8 mm 1 mps 687 mmHg 82%
    18:00 +18°C° 0.8 mm 1 mps 687 mmHg 86%
    19:00 +16°C° 0.8 mm 1 mps 687 mmHg 90%
    20:00 +15°C° 0.3 mm 1 mps 687 mmHg 93%
    21:00 +12°C° 0.3 mm 0 mps 687 mmHg 95%
    22:00 +11°C° 0.3 mm 0 mps 687 mmHg 98%
    23:00 +10°C° 0 mm 0 mps 686 mmHg 98%

    2 June, Friday

    Time Temperature Precipitation Wind Pressure Humidity
    00:00 +9°C° 0 mm 0 mps 686 mmHg 98%
    01:00 +9°C° 0 mm 0 mps 686 mmHg 98%
    02:00 +8°C° 0 mm 0 mps 686 mmHg 98%
    03:00 +8°C° 0 mm 0 mps 685 mmHg 98%
    04:00 +7°C° 0 mm 0 mps 685 mmHg 98%
    05:00 +10°C° 0 mm 0 mps 686 mmHg 94%
    06:00 +13°C° 0 mm 0 mps 687 mmHg 89%
    07:00 +15°C° 0 mm 0 mps 687 mmHg 85%
    08:00 +17°C° 0 mm 0 mps 688 mmHg 77%
    09:00 +19°C° 0 mm 0 mps 688 mmHg 69%
    10:00 +22°C° 0 mm 1 mps 688 mmHg 62%
    11:00 +23°C° 0.1 mm 1 mps 688 mmHg 59%
    12:00 +24°C° 0.1 mm 1 mps 688 mmHg 57%
    13:00 +24°C° 0.1 mm 1 mps 688 mmHg 54%
    14:00 +24°C° 0.3 mm 1 mps 688 mmHg 59%
    15:00 +23°C° 0.3 mm 2 mps 687 mmHg 63%
    16:00 +23°C° 0.3 mm 2 mps 687 mmHg 68%
    17:00 +22°C° 0.3 mm 1 mps 687 mmHg 75%
    18:00 +20°C° 0.3 mm 1 mps 687 mmHg 82%
    19:00 +19°C° 0.3 mm 1 mps 687 mmHg 89%
    20:00 +16°C° 0.3 mm 1 mps 687 mmHg 92%
    21:00 +13°C° 0.3 mm 0 mps 686 mmHg 95%
    22:00 +11°C° 0.3 mm 0 mps 686 mmHg 98%
    23:00 +11°C° 0.1 mm 0 mps 686 mmHg 97%
    Show more